Wind_Speed
16 16 14 14 14 13 12 11 11 11 9 8 8 8 8 7 7 7 7 7 7 7 7 7 7 8 9 9 9 10 9 9 8 9 9 9 9 9 9 9 9 9 9 8 8 7 7 7 7
16 16 15 15 16 14 14 13 12 11 10 9 9 9 9 9 8 8 8 8 8 7 8 7 7 7 8 9 9 9 9 8 8 8 9 9 9 9 9 9 9 9 9 8 7 7 6 6 6
17 16 16 16 16 16 15 14 13 13 11 10 10 10 10 9 9 9 9 9 8 8 8 8 7 7 8 9 9 9 9 8 9 9 9 9 9 9 9 9 9 9 8 8 7 6 6 6 6
17 17 17 17 17 17 16 15 14 13 13 12 12 12 11 10 10 9 9 10 10 10 10 9 9 9 9 9 10 9 9 9 9 8 8 8 9 9 8 8 8 8 7 7 6 7 7 6 6
17 17 18 18 19 18 18 17 16 15 14 13 12 12 12 11 10 10 10 11 11 11 11 11 10 10 10 10 11 10 9 9 8 8 8 8 8 8 7 7 7 7 6 6 6 6 6 6 5
16 17 18 19 20 20 19 18 17 16 14 13 12 12 12 11 10 10 11 12 12 11 10 11 11 12 11 10 10 10 10 9 9 8 8 8 8 8 7 6 6 6 5 5 5 5 5 5 4
18 18 19 19 20 20 20 19 19 17 15 13 12 12 12 12 11 11 11 10 11 11 11 11 12 12 12 11 10 9 9 9 9 8 8 8 7 6 6 5 6 5 6 6 5 5 4 3 3
18 19 20 20 20 20 20 20 19 18 15 13 13 12 12 12 11 11 11 10 10 11 11 11 11 12 11 11 10 9 8 8 7 7 8 8 7 7 6 6 5 5 5 4 3 3 2 2 2
18 19 20 20 20 21 20 20 20 18 16 14 13 12 12 12 11 11 11 11 11 11 11 11 12 11 11 10 10 9 9 8 7 7 7 7 7 7 6 6 5 5 4 3 2 2 1 1 1
17 19 19 18 19 20 20 20 20 18 17 15 13 13 12 12 12 12 11 11 11 11 11 12 11 11 11 10 10 10 9 9 8 7 6 7 7 6 6 6 5 4 3 2 2 2 1 1 0
16 17 17 17 18 19 20 20 19 18 17 16 15 15 15 13 13 12 12 12 12 12 11 11 11 11 10 10 10 10 10 10 8 8 7 7 7 6 5 5 4 4 2 1 1 1 1 0 2
14 15 15 16 17 18 19 20 19 18 18 17 16 16 16 15 14 13 13 13 12 12 11 12 12 11 11 10 10 10 9 8 8 7 7 6 6 6 5 5 4 4 3 2 1 1 1 1 2
12 14 15 15 15 17 18 19 18 19 18 17 16 16 16 16 16 15 14 13 12 12 12 11 12 12 11 11 10 10 9 8 8 7 7 6 5 5 4 4 4 4 3 3 3 2 2 2 3
9 11 12 14 15 16 18 18 17 18 18 17 16 16 16 16 16 15 14 13 13 12 12 11 12 12 11 11 10 9 9 8 8 7 7 7 6 5 4 4 4 4 4 4 4 4 3 2 3
7 8 10 12 13 14 15 16 16 16 16 16 15 15 15 15 14 14 13 12 13 12 12 11 11 11 11 11 10 9 9 8 8 7 7 7 6 6 5 4 3 3 3 3 4 4 4 3 2
5 6 7 9 11 11 12 14 14 15 14 15 14 13 13 13 13 13 13 12 12 12 12 11 10 9 9 9 9 9 9 8 8 8 8 7 6 6 5 4 4 3 3 3 4 4 4 4 4
3 3 5 6 8 9 10 11 12 12 12 12 12 12 11 12 12 12 12 12 12 11 10 10 10 9 9 9 8 8 8 8 8 8 8 7 6 6 5 4 4 4 4 4 4 5 5 4 5
1 1 3 4 6 7 8 9 9 9 9 10 10 10 10 11 11 11 11 10 10 10 10 10 9 9 8 8 8 8 8 8 8 8 8 8 7 6 5 4 4 5 5 4 4 5 5 4 5
3 1 1 3 3 5 6 7 7 7 7 8 9 9 9 9 9 9 9 9 9 9 9 8 8 8 8 8 7 7 8 8 8 7 7 8 7 7 6 6 5 5 5 5 5 5 5 5 5
5 3 1 0 1 2 3 4 5 5 5 5 6 6 7 8 8 8 8 8 8 8 7 7 7 7 7 7 7 7 8 8 7 7 7 7 7 6 6 6 5 5 5 5 5 5 5 6 6
8 6 4 3 3 2 2 3 3 3 3 4 4 4 4 6 6 7 7 6 6 6 7 7 7 7 6 6 6 7 7 7 7 7 6 6 6 5 5 5 6 6 6 6 6 6 6 7 7
11 9 8 6 5 5 4 3 2 2 2 2 2 3 4 3 4 5 5 5 5 5 5 6 6 6 6 6 5 5 6 6 6 6 6 5 5 6 6 6 7 7 7 7 7 7 7 7 8
13 13 11 9 8 8 7 5 4 3 2 1 2 2 2 2 3 3 3 4 4 4 5 5 5 5 5 5 5 5 5 5 5 5 6 6 6 6 7 7 7 8 8 8 8 7 8 8 8
17 15 14 13 12 11 9 8 5 4 2 2 2 1 2 2 2 2 3 4 4 4 5 5 6 5 4 4 4 4 4 5 5 5 6 6 6 7 7 8 8 8 8 9 9 9 9 10 10
19 18 17 16 15 14 12 11 8 5 4 3 3 2 3 3 2 2 2 3 3 3 4 5 5 5 4 4 4 5 5 5 6 6 7 7 7 8 8 8 8 9 9 10 10 10 10 10 10
21 20 20 19 18 16 15 14 10 7 5 5 5 4 5 5 3 2 2 2 3 3 3 4 5 5 5 5 5 6 7 7 8 8 8 8 9 9 8 8 9 9 10 10 10 10 11 11 12
23 22 21 21 20 19 17 15 12 9 7 7 7 6 5 5 5 4 4 4 4 3 4 4 5 5 5 5 6 7 7 8 8 9 10 10 9 10 9 10 10 10 10 10 10 11 12 12 12
24 23 24 23 22 21 19 16 13 10 9 9 9 8 6 6 6 6 5 5 5 5 5 5 5 6 6 6 6 7 8 8 8 9 11 10 10 10 11 11 11 11 11 11 12 12 12 13 13
24 24 25 24 23 22 20 17 14 12 10 10 10 10 8 8 8 7 7 7 7 7 7 6 6 7 7 7 7 8 8 8 9 10 11 11 11 11 12 12 12 13 13 12 13 13 13 14 15
25 25 24 25 24 23 22 19 16 14 12 11 11 11 10 10 10 9 8 8 8 8 8 8 8 8 8 8 9 9 9 10 11 12 12 12 12 12 13 13 13 14 14 14 14 15 15 15 16
Wind_Direction
63 64 62 62 61 60 61 63 65 67 69 75 77 75 74 76 83 87 90 88 89 91 90 84 89 96 101 108 110 109 110 109 105 108 110 111 114 119 123 123 121 122 121 120 121 126 134 133 136
64 62 60 59 59 59 61 63 65 65 68 75 77 77 75 78 87 92 91 88 89 91 94 93 95 100 99 102 108 107 107 108 103 108 114 114 113 117 123 121 117 118 117 118 119 122 136 134 132
64 62 63 59 57 58 60 63 62 60 64 71 74 77 77 79 85 90 90 89 89 89 97 98 97 99 99 100 108 107 105 104 106 112 111 109 113 115 120 119 117 117 117 117 118 122 125 137 138
62 64 62 59 59 60 61 65 67 65 64 67 71 73 77 80 82 86 88 90 89 92 98 94 99 102 98 97 103 108 105 101 102 106 105 109 108 110 117 118 119 120 119 118 117 120 126 133 139
61 61 61 60 61 63 62 64 67 69 67 65 69 73 76 79 80 84 89 94 94 96 96 92 91 100 99 100 107 106 105 104 102 100 101 101 105 109 106 108 115 121 124 122 124 128 128 135 136
63 60 61 62 63 64 65 64 65 67 66 65 66 71 75 75 77 83 91 98 94 94 93 88 92 99 101 100 99 102 107 109 103 98 100 102 104 105 101 102 112 122 127 126 124 126 128 127 131
65 60 60 63 64 63 64 65 64 66 69 67 67 71 76 77 77 82 90 96 89 87 88 93 96 98 98 97 96 98 99 103 105 104 108 108 101 96 97 105 111 117 121 121 126 132 128 133 136
64 61 62 62 63 62 62 63 63 64 66 68 67 69 76 79 80 84 87 88 88 87 87 93 100 95 94 94 94 93 95 92 93 96 101 104 97 93 95 99 99 101 110 114 128 137 132 137 148
64 62 64 62 61 61 59 60 61 62 62 65 66 69 74 78 80 84 87 88 90 91 87 89 93 92 93 93 89 91 91 88 87 89 89 88 88 87 87 88 90 91 94 105 118 129 123 129 155
65 63 63 63 63 61 59 60 61 61 61 63 66 70 73 77 80 84 90 91 91 91 87 87 89 86 87 92 89 91 89 86 85 89 93 90 85 82 83 87 86 86 93 100 104 109 110 96 306
67 65 62 63 65 63 61 62 61 61 65 65 65 67 72 76 80 85 91 94 91 92 89 86 89 85 85 86 87 91 91 88 87 86 88 87 84 82 86 85 79 79 77 75 100 114 124 250 274
70 70 65 63 67 64 62 62 61 62 65 67 67 68 69 70 71 79 87 91 89 88 89 89 89 87 88 87 88 93 91 84 82 83 80 81 81 81 80 77 72 66 62 58 42 40 331 306 301
73 73 67 64 64 64 65 63 62 61 64 67 68 68 70 73 74 78 85 86 85 86 89 91 92 87 87 88 88 89 85 80 74 69 66 66 66 65 65 67 64 53 50 47 34 11 350 337 326
77 72 67 64 64 64 66 64 61 61 64 66 69 69 70 70 74 79 83 83 85 86 86 88 91 89 87 86 87 84 78 72 69 66 62 60 57 52 52 52 50 46 39 30 22 17 12 351 336
79 74 67 63 64 61 63 62 61 59 62 65 68 69 69 69 73 77 81 83 83 83 82 85 87 87 84 82 82 79 75 70 65 62 60 58 53 48 46 47 43 36 24 22 20 15 11 2 345
88 81 74 65 62 59 60 62 63 59 61 64 66 69 70 70 73 76 79 80 81 81 81 82 82 82 81 76 75 73 72 67 62 58 53 48 45 41 38 37 33 21 16 13 8 1 358 2 357
109 91 75 68 62 59 56 60 63 60 59 62 65 67 71 73 74 76 77 78 78 80 82 80 77 80 79 74 69 66 66 61 56 52 46 41 37 32 31 33 23 17 10 1 355 353 353 348 341
112 89 72 68 66 58 51 57 59 59 60 60 67 69 71 72 73 73 74 76 76 76 78 76 73 76 75 73 66 60 57 53 51 51 47 44 39 31 28 24 15 10 4 357 350 347 346 339 333
203 178 112 88 71 57 51 52 51 53 55 57 65 70 72 70 69 71 72 73 72 70 70 67 66 67 68 66 61 55 55 51 48 47 40 38 35 31 27 26 19 12 3 355 350 345 343 339 334
212 209 220 273 7 43 39 41 40 49 51 51 57 63 73 73 65 62 65 69 70 69 65 60 58 57 59 57 55 54 53 50 45 40 36 37 32 30 26 21 13 6 357 352 344 337 334 330 327
216 221 235 257 276 296 322 354 9 38 41 52 50 47 61 67 63 58 57 62 68 67 65 62 57 56 59 56 52 53 49 43 39 34 33 29 23 20 15 10 1 355 350 346 341 337 331 326 324
224 228 235 244 257 278 288 301 322 351 16 36 36 44 51 50 46 49 48 50 56 59 62 62 56 54 55 50 45 41 36 33 29 27 22 16 13 10 2 359 354 347 338 336 336 334 333 332 327
233 236 238 240 251 265 275 284 290 285 301 332 353 17 22 14 7 21 32 34 33 50 55 54 52 48 48 44 33 28 29 25 22 19 14 5 358 355 352 350 343 341 336 331 331 329 330 330 331
235 238 239 239 247 253 266 273 277 268 270 275 286 298 327 317 325 341 11 19 26 42 44 40 33 29 30 33 24 15 11 8 4 359 357 354 349 343 341 341 340 339 337 333 329 327 325 325 328
234 238 241 243 248 254 259 263 270 271 263 267 261 264 286 286 287 304 334 3 10 11 11 13 10 11 6 8 8 360 350 347 346 345 344 342 339 335 335 336 336 335 333 331 327 324 324 322 324
233 238 242 246 251 254 255 258 263 264 261 265 260 263 275 272 273 280 291 321 333 338 341 343 349 351 349 347 352 352 350 346 343 342 340 337 334 331 332 330 327 326 327 327 325 324 323 319 319
234 237 241 246 250 251 252 255 258 259 265 268 270 270 269 258 259 261 276 293 303 304 311 321 328 334 334 336 338 341 344 341 337 337 338 335 333 334 337 335 330 329 328 323 321 321 322 320 318
235 235 237 242 245 249 253 253 257 257 260 267 274 273 268 254 255 264 273 277 287 295 301 306 310 314 319 321 324 330 338 337 333 329 331 333 332 332 331 330 328 327 324 323 322 320 318 316 315
233 235 238 240 242 248 253 255 257 259 262 267 269 272 268 262 265 270 275 280 288 295 297 302 300 303 307 312 316 321 328 332 328 327 327 327 323 322 326 324 324 323 321 318 317 318 315 314 313
232 234 237 240 243 248 253 256 255 255 259 265 267 269 269 267 269 271 271 277 285 291 295 300 296 299 302 304 310 312 320 327 327 324 322 321 317 314 314 316 316 317 318 317 316 314 314 311 311
Height
5873 5872 5871 5871 5870 5868 5866 5866 5864 5864 5863 5863 5863 5863 5863 5863 5864 5866 5865 5864 5864 5864 5864 5864 5864 5864 5864 5864 5864 5865 5865 5866 5867 5867 5868 5869 5869 5870 5871 5872 5873 5874 5875 5876 5876 5878 5879 5880 5881
5875 5874 5874 5872 5870 5868 5868 5867 5865 5865 5864 5864 5864 5864 5864 5864 5864 5864 5864 5865 5865 5865 5865 5865 5865 5865 5865 5866 5866 5866 5867 5868 5868 5869 5869 5870 5870 5871 5872 5873 5874 5875 5876 5877 5878 5879 5880 5881 5882
5877 5876 5876 5874 5871 5870 5869 5868 5867 5866 5865 5865 5865 5865 5865 5865 5865 5865 5866 5866 5866 5866 5866 5866 5866 5866 5866 5867 5867 5868 5868 5869 5870 5870 5871 5871 5872 5872 5873 5874 5875 5876 5877 5878 5879 5880 5881 5882 5883
5880 5879 5878 5876 5874 5872 5871 5870 5868 5867 5867 5867 5866 5867 5866 5867 5867 5867 5867 5867 5867 5867 5867 5867 5867 5867 5868 5868 5869 5869 5870 5871 5871 5872 5872 5873 5873 5874 5875 5876 5877 5878 5878 5879 5880 5881 5882 5883 5884
5882 5881 5880 5877 5875 5874 5873 5871 5870 5869 5869 5868 5868 5868 5868 5868 5868 5868 5868 5868 5869 5869 5869 5869 5869 5869 5869 5870 5870 5871 5872 5872 5873 5873 5874 5875 5875 5875 5876 5877 5878 5879 5880 5880 5881 5882 5883 5884 5884
5884 5883 5881 5879 5878 5877 5875 5873 5872 5871 5871 5870 5870 5870 5870 5870 5869 5869 5870 5870 5870 5871 5871 5870 5870 5870 5871 5871 5872 5873 5873 5874 5875 5875 5876 5876 5876 5877 5878 5878 5879 5880 5881 5881 5882 5882 5883 5884 5885
5887 5885 5883 5881 5880 5879 5878 5876 5874 5873 5873 5873 5873 5872 5872 5871 5871 5871 5871 5871 5872 5872 5872 5872 5872 5872 5873 5873 5874 5874 5875 5875 5876 5876 5877 5877 5878 5878 5879 5879 5880 5881 5881 5882 5882 5883 5884 5885 5885
5888 5888 5885 5884 5882 5881 5880 5878 5877 5876 5876 5875 5875 5874 5874 5874 5873 5873 5873 5874 5874 5874 5874 5874 5874 5875 5875 5875 5875 5876 5876 5877 5877 5877 5878 5878 5879 5879 5880 5880 5881 5882 5882 5882 5883 5884 5884 5885 5885
5891 5890 5887 5886 5885 5884 5883 5881 5880 5879 5878 5877 5877 5877 5876 5876 5875 5875 5875 5876 5876 5876 5876 5876 5877 5877 5877 5877 5877 5878 5878 5878 5879 5879 5880 5880 5881 5881 5881 5881 5882 5882 5883 5883 5884 5884 5884 5885 5885
5893 5892 5890 5889 5888 5887 5886 5884 5883 5882 5881 5880 5879 5879 5878 5878 5877 5877 5878 5878 5878 5878 5878 5878 5879 5879 5879 5879 5879 5879 5880 5880 5881 5881 5882 5882 5882 5882 5882 5883 5883 5883 5883 5884 5884 5884 5885 5885 5885
5895 5894 5893 5892 5891 5890 5889 5887 5886 5885 5884 5883 5882 5881 5880 5880 5880 5880 5880 5880 5881 5881 5881 5881 5881 5881 5881 5881 5881 5882 5882 5882 5882 5883 5883 5883 5883 5883 5884 5884 5884 5884 5884 5884 5884 5884 5885 5885 5885
5898 5897 5896 5895 5893 5892 5891 5890 5889 5888 5887 5886 5885 5884 5884 5883 5883 5882 5882 5883 5883 5883 5883 5883 5883 5883 5883 5883 5883 5884 5884 5884 5884 5884 5884 5884 5884 5884 5884 5884 5884 5885 5884 5884 5884 5884 5884 5884 5884
5900 5899 5898 5897 5896 5895 5894 5893 5892 5891 5890 5889 5888 5888 5887 5886 5886 5885 5885 5885 5885 5885 5885 5885 5885 5885 5885 5885 5885 5886 5886 5886 5886 5886 5885 5885 5885 5885 5885 5885 5885 5885 5885 5885 5885 5884 5884 5884 5884
5902 5901 5900 5899 5898 5897 5896 5896 5895 5894 5893 5893 5892 5891 5890 5889 5888 5888 5888 5888 5888 5887 5887 5887 5887 5888 5887 5887 5887 5887 5887 5887 5887 5887 5887 5886 5886 5886 5886 5886 5885 5885 5885 5885 5885 5884 5884 5884 5884
5903 5903 5903 5902 5900 5899 5899 5899 5898 5897 5896 5896 5895 5894 5893 5892 5892 5891 5891 5891 5890 5890 5890 5890 5890 5890 5890 5889 5889 5889 5889 5889 5889 5888 5888 5888 5887 5887 5887 5886 5886 5886 5886 5885 5885 5885 5884 5884 5883
5905 5905 5905 5904 5903 5902 5903 5901 5900 5900 5899 5898 5898 5897 5896 5895 5895 5894 5894 5893 5893 5892 5892 5892 5892 5892 5892 5891 5891 5891 5891 5890 5890 5889 5889 5888 5888 5888 5887 5887 5886 5886 5886 5886 5885 5885 5884 5884 5883
5905 5905 5905 5906 5905 5903 5903 5903 5902 5902 5901 5900 5900 5899 5899 5898 5897 5897 5896 5896 5895 5895 5895 5894 5894 5894 5894 5894 5893 5893 5893 5892 5891 5891 5890 5889 5889 5888 5888 5887 5887 5886 5886 5886 5885 5885 5884 5883 5883
5906 5906 5906 5906 5906 5905 5905 5904 5904 5904 5903 5902 5902 5901 5901 5900 5899 5899 5898 5898 5897 5897 5897 5896 5896 5896 5895 5895 5895 5894 5894 5893 5892 5892 5891 5891 5890 5889 5889 5888 5887 5887 5886 5886 5885 5885 5884 5883 5882
5906 5906 5907 5907 5907 5906 5906 5906 5905 5905 5905 5904 5904 5903 5903 5902 5901 5901 5900 5900 5899 5899 5898 5898 5898 5897 5897 5896 5896 5895 5895 5894 5894 5893 5892 5892 5891 5890 5889 5889 5888 5887 5887 5886 5885 5884 5883 5883 5882
5906 5907 5907 5907 5907 5907 5907 5907 5906 5906 5906 5906 5905 5904 5904 5903 5903 5902 5902 5901 5901 5900 5900 5900 5899 5899 5898 5898 5897 5897 5896 5896 5895 5894 5893 5892 5891 5891 5890 5889 5889 5888 5887 5886 5885 5884 5883 5882 5881
5905 5906 5907 5907 5907 5907 5907 5908 5907 5907 5907 5906 5906 5905 5905 5904 5904 5904 5903 5902 5902 5901 5901 5901 5900 5900 5899 5899 5898 5898 5897 5896 5896 5895 5894 5893 5892 5891 5890 5889 5888 5888 5887 5885 5884 5883 5882 5881 5880
5904 5905 5906 5906 5906 5906 5907 5907 5907 5907 5907 5907 5906 5906 5905 5905 5905 5904 5904 5904 5903 5902 5902 5901 5901 5900 5900 5899 5899 5898 5897 5897 5896 5895 5894 5893 5892 5891 5890 5889 5888 5887 5886 5885 5884 5883 5881 5880 5878
5902 5903 5904 5904 5905 5906 5906 5907 5908 5907 5907 5907 5907 5906 5906 5905 5905 5905 5904 5904 5904 5903 5903 5902 5902 5901 5900 5900 5899 5898 5897 5897 5896 5895 5894 5893 5892 5891 5890 5889 5887 5886 5885 5884 5883 5882 5880 5879 5877
5899 5901 5901 5902 5903 5904 5905 5905 5906 5906 5907 5907 5907 5906 5906 5906 5905 5905 5905 5904 5904 5903 5903 5903 5902 5901 5901 5900 5899 5898 5897 5897 5896 5895 5894 5893 5892 5891 5889 5888 5886 5885 5884 5882 5881 5880 5879 5878 5876
5895 5898 5899 5900 5900 5902 5904 5903 5905 5906 5906 5907 5907 5906 5906 5905 5905 5905 5904 5904 5903 5903 5903 5902 5902 5901 5901 5900 5899 5898 5897 5896 5896 5895 5893 5892 5891 5890 5888 5887 5885 5884 5882 5881 5880 5878 5877 5876 5874
5891 5894 5896 5898 5899 5900 5901 5901 5904 5905 5905 5906 5906 5905 5905 5904 5904 5904 5904 5903 5903 5903 5902 5902 5901 5901 5900 5899 5898 5897 5896 5896 5895 5893 5892 5891 5890 5888 5887 5885 5884 5882 5881 5879 5878 5876 5875 5874 5872
5887 5890 5893 5895 5896 5897 5898 5899 5901 5902 5903 5904 5904 5904 5903 5903 5903 5903 5903 5903 5902 5902 5901 5901 5900 5900 5899 5898 5897 5896 5896 5895 5894 5892 5891 5890 5888 5887 5885 5884 5882 5881 5879 5878 5876 5875 5873 5871 5870
5883 5886 5889 5890 5892 5893 5895 5896 5899 5900 5901 5902 5902 5902 5902 5901 5901 5901 5901 5901 5901 5900 5900 5899 5899 5898 5898 5897 5896 5895 5894 5893 5892 5891 5890 5888 5886 5885 5883 5882 5880 5879 5877 5875 5874 5872 5870 5869 5867
5878 5881 5883 5886 5888 5890 5891 5896 5897 5898 5899 5899 5900 5900 5899 5899 5899 5899 5899 5899 5899 5899 5898 5898 5897 5897 5896 5896 5895 5894 5893 5891 5890 5889 5887 5886 5884 5883 5882 5880 5878 5877 5875 5873 5872 5870 5868 5866 5864
5874 5877 5880 5882 5884 5886 5888 5893 5894 5895 5896 5896 5897 5897 5897 5897 5897 5897 5897 5896 5897 5897 5896 5896 5895 5895 5894 5893 5893 5892 5891 5889 5888 5886 5885 5884 5882 5880 5879 5877 5876 5874 5872 5870 5869 5867 5865 5862 5860